Santa Fe, NM

7:58 PM MDT on June 25, 2017 (GMT -0600)
Santa Fe Municipal

Weather History for KSAF - February, 2013

Change the Weather History Date:

Thursday, February 7, 2013

  Actual Average Record
Temperature  
Mean Temperature 39 °F -  
Max Temperature 51 °F 0 °F 64 °F (2015)
Min Temperature 27 °F - 12 °F (2004)
Degree Days  
Heating Degree Days 26    
Moisture  
Dew Point 20 °F    
Average Humidity 50    
Maximum Humidity 78    
Minimum Humidity 21    
Precipitation  
Precipitation 0.00 in - - ()
Sea Level Pressure  
Sea Level Pressure 30.04 in    
Wind  
Wind Speed 6 mph (WSW)    
Max Wind Speed 14 mph    
Max Gust Speed -    
Visibility 10 miles    
Events      
Averages and records for this station are not official NWS values.
T = Trace of Precipitation, MM = Missing Value Source: NWS Daily Summary

Daily Weather History Graph

Daily Weather History Graph

Search for Another Location

Airport or City:

Trip Planner

Search our weather history database for the weather conditions in past years. The results will help you decide how hot, cold, wet, or windy it might be!

Date:

Astronomy

Feb. 07, 2013 Rise Set
Actual Time 6:58 AM MST 5:38 PM MST
Civil Twilight 6:32 AM MST 6:05 PM MST
Nautical Twilight 6:02 AM MST 6:35 PM MST
Astronomical Twilight 5:32 AM MST 7:05 PM MST
Moon 4:37 AM MST (2/7) 3:08 PM MST (2/7)
Length of Visible Light 11h 32m
Length of Day
10h 39m
Waning Crescent, 8% of the Moon is Illuminated
Feb 7
Waning Crescent
Feb 10
New
Feb 17
First Quarter
Feb 25
Full
Mar 4
Last Quarter

Hourly Weather History & Observations

Time (MST) Temp. Windchill Dew Point Humidity Pressure Visibility Wind Dir Wind Speed Gust Speed Precip Events Conditions
12:53 AM 33.1 °F 25.5 °F 21.9 °F 64% 29.91 in 10.0 mi North 9.2 mph - N/A   Clear
1:53 AM 30.9 °F 22.8 °F 21.9 °F 69% 29.91 in 10.0 mi North 9.2 mph - N/A   Clear
2:53 AM 34.0 °F 29.8 °F 21.9 °F 61% 29.91 in 10.0 mi WNW 4.6 mph - N/A   Clear
3:53 AM 30.0 °F - 21.0 °F 69% 29.94 in 10.0 mi Calm Calm - N/A   Clear
4:53 AM 33.1 °F - 21.9 °F 64% 29.95 in 10.0 mi Calm Calm - N/A   Clear
5:53 AM 28.9 °F - 21.9 °F 75% 30.02 in 10.0 mi Calm Calm - N/A   Clear
6:53 AM 27.0 °F 23.0 °F 21.0 °F 78% 30.06 in 10.0 mi West 3.5 mph - N/A   Clear
7:53 AM 30.9 °F - 24.1 °F 76% 30.08 in 10.0 mi Calm Calm - N/A   Clear
8:53 AM 36.0 °F 32.1 °F 24.1 °F 62% 30.10 in 10.0 mi SW 4.6 mph - N/A   Clear
9:53 AM 42.1 °F 37.7 °F 23.0 °F 47% 30.08 in 10.0 mi North 6.9 mph - N/A   Clear
10:53 AM 45.0 °F 40.1 °F 24.1 °F 44% 30.08 in 10.0 mi North 9.2 mph - N/A   Clear
11:53 AM 46.9 °F - 23.0 °F 39% 30.07 in 10.0 mi Variable 3.5 mph - N/A   Clear
12:53 PM 48.0 °F - 21.9 °F 36% 30.05 in 10.0 mi Variable 3.5 mph - N/A   Clear
1:53 PM 51.1 °F - 18.0 °F 27% 30.03 in 10.0 mi WSW 9.2 mph - N/A   Clear
2:53 PM 51.1 °F - 17.1 °F 26% 30.01 in 10.0 mi SW 10.4 mph - N/A   Clear
3:53 PM 48.9 °F - 15.1 °F 26% 30.03 in 10.0 mi WSW 5.8 mph - N/A   Clear
4:53 PM 48.9 °F - 10.0 °F 21% 30.03 in 10.0 mi SSW 4.6 mph - N/A   Clear
5:53 PM 45.0 °F 43.5 °F 10.9 °F 25% 30.08 in 10.0 mi WSW 3.5 mph - N/A   Clear
6:53 PM 43.0 °F - 10.0 °F 26% 30.10 in 10.0 mi Calm Calm - N/A   Clear
7:53 PM 37.9 °F 30.9 °F 17.1 °F 43% 30.12 in 10.0 mi ESE 10.4 mph - N/A   Clear
8:53 PM 37.9 °F 29.6 °F 21.0 °F 51% 30.12 in 10.0 mi SE 13.8 mph - N/A   Clear
9:53 PM 37.0 °F 28.5 °F 21.0 °F 52% 30.10 in 10.0 mi ESE 13.8 mph - N/A   Clear
10:53 PM 36.0 °F 27.5 °F 19.9 °F 52% 30.08 in 10.0 mi SE 12.7 mph - N/A   Clear
11:53 PM 33.1 °F 27.7 °F 19.0 °F 56% 30.10 in 10.0 mi South 5.8 mph - N/A   Clear